Starlink 32273

operational
NORAD ID: 61956 Int'l Des: 2024-209 Owner: SPXS Country: US Constellation: starlink
LEOCIRCULAR

关于 Starlink 32273

正在加载描述...

实时位置

正在加载3D地球...

即将过境

高度历史

Altitude vs Time

uPlot chart will show altitude changes over time

两行轨道根数

1 61956U 24209T 25351.22787302 .00024516 00000-0 83703-3 0 9993
2 61956 53.1580 165.2838 0001213 88.5052 271.6088 15.30203274 62275
Epoch: Dec 17, 2025 • Age: 15 hours

当前状态

高度 479.7 km
速度 7.63 km/s
星下点 47.90°N, 100.78°W
发射日期 Nov 14, 2024
运行时间 1 years
类型 internet

技术详情

分类 Payload
质量 730.00 kg
干质量 700.00 kg
总质量 730.00 kg
长度 0.30 m
直径 4.10 m
跨度 29.00 m
形状 Box + pan
制造商 SPXS
平台类型 Starlink V2M
阶段状态 In Orbit
所有者/国家 SPXS/US

大型星座

Loading constellations...